Location: Azul
(36.7830°S, 59.8500°W)
Time: 21:03:02
(UTC-03:00)

ISS - Pass Details

Date: 14 February 2020
Orbit: 415 x 422 km, 51.6° (Epoch: 27 February)

Event Time Altitude Azimuth Distance (km) Brightness Sun altitude
Rises 20:24:46 0° 349° (N) 2,356 -0.1 -6.0°
Reaches altitude 10° 20:27:24 10° 11° (N) 1,500 -1.3 -6.5°
Maximum altitude 20:29:35 16° 51° (NE) 1,181 -2.1 -6.9°
Drops below altitude 10° 20:31:47 10° 92° (E) 1,511 -1.5 -7.3°
Enters shadow 20:33:03 - 105° (ESE) 1,896 -0.9 -7.5°
